Location: Unspecified
(50.0077°N, 36.2988°E)
Time: 07:33:46
(UTC+00:00)

X-37B - Visible Passes

Search period start: 21 September 2020 00:00
Search period end: 01 October 2020 00:00
Orbit: 386 x 387 km, 45.0° (Epoch: 18 September)

Date Brightness Start Highest point End Pass type
(mag) Time Alt. Az. Time Alt. Az. Time Alt. Az.
21 Sep 3.6 00:37:28 11° ESE 00:37:28 11° ESE 00:37:40 10° ESE visible
21 Sep 2.0 02:09:45 19° SW 02:10:57 23° SSW 02:13:33 10° SE visible
22 Sep 2.7 01:14:02 19° SE 01:14:02 19° SE 01:15:20 10° SE visible
22 Sep 2.9 02:47:03 10° SW 02:48:32 13° SSW 02:49:58 10° S visible
23 Sep 2.5 01:50:43 17° S 01:50:43 17° S 01:52:26 10° SSE visible
